ETD551 OMAA-OBBI

Flight info

Callsign ETD551
Flight time 0h 51m
Altitude 24000
Route BOSEV N563 IMGUX P699 ORMID Y856 ALKAN/N0387F180 Y856 SOLOB/N0376F160 Y856 ORDIG
Aircraft A320/M-SDE3FGHIRWY/LB1

Departure

Time 2026-04-27 20:22
Airport Zayed International Airport (OMAA)

Arrival

Time 2026-04-27 21:13
Airport Bahrain International Airport (OBBI)
Time Latitude Longitude Altitude Speed Heading
2026-04-27 19:54 24.44591 54.64536 76 ft 0 kts 232°
2026-04-27 20:09 24.44591 54.64537 103 ft 1 kts 232°
2026-04-27 20:09 24.44603 54.64553 66 ft 2 kts 233°
2026-04-27 20:09 24.44613 54.64567 65 ft 2 kts 232°
2026-04-27 20:09 24.44624 54.64582 68 ft 2 kts 232°
2026-04-27 20:10 24.44634 54.64596 65 ft 2 kts 222°
2026-04-27 20:10 24.44648 54.64604 66 ft 2 kts 176°
2026-04-27 20:10 24.44664 54.64599 65 ft 2 kts 161°
2026-04-27 20:10 24.44680 54.64593 68 ft 2 kts 153°
2026-04-27 20:11 24.44694 54.64583 74 ft 2 kts 139°
2026-04-27 20:11 24.44704 54.64573 68 ft 1 kts 140°
2026-04-27 20:11 24.44705 54.64572 68 ft 0 kts 141°
2026-04-27 20:13 24.44697 54.64578 75 ft 2 kts 142°
2026-04-27 20:13 24.44686 54.64589 72 ft 4 kts 140°
2026-04-27 20:13 24.44661 54.64614 65 ft 6 kts 133°
2026-04-27 20:13 24.44631 54.64653 71 ft 8 kts 128°
2026-04-27 20:14 24.44597 54.64700 72 ft 10 kts 128°
2026-04-27 20:14 24.44591 54.64768 72 ft 10 kts 49°
2026-04-27 20:14 24.44592 54.64836 69 ft 10 kts 128°
2026-04-27 20:14 24.44545 54.64901 74 ft 12 kts 128°
2026-04-27 20:15 24.44492 54.64977 74 ft 14 kts 126°
2026-04-27 20:15 24.44429 54.65067 67 ft 16 kts 127°
2026-04-27 20:15 24.44343 54.65070 69 ft 14 kts 223°
2026-04-27 20:15 24.44260 54.64998 71 ft 16 kts 218°
2026-04-27 20:16 24.44162 54.64916 76 ft 19 kts 218°
2026-04-27 20:16 24.44052 54.64823 75 ft 21 kts 217°
2026-04-27 20:16 24.43936 54.64722 74 ft 22 kts 215°
2026-04-27 20:16 24.43828 54.64689 71 ft 15 kts 144°
2026-04-27 20:17 24.43758 54.64786 70 ft 17 kts 127°
2026-04-27 20:17 24.43680 54.64895 75 ft 19 kts 128°
2026-04-27 20:17 24.43593 54.65017 70 ft 21 kts 128°
2026-04-27 20:17 24.43499 54.65150 69 ft 23 kts 129°
2026-04-27 20:18 24.43394 54.65290 77 ft 25 kts 130°
2026-04-27 20:18 24.43287 54.65449 71 ft 26 kts 128°
2026-04-27 20:18 24.43171 54.65613 76 ft 28 kts 128°
2026-04-27 20:18 24.43047 54.65789 73 ft 30 kts 127°
2026-04-27 20:19 24.42918 54.65967 72 ft 30 kts 128°
2026-04-27 20:19 24.42791 54.66146 76 ft 24 kts 127°
2026-04-27 20:19 24.42708 54.66200 70 ft 13 kts 201°
2026-04-27 20:19 24.42633 54.66138 75 ft 14 kts 218°
2026-04-27 20:20 24.42630 54.66067 76 ft 11 kts 307°
2026-04-27 20:20 24.42706 54.65962 72 ft 40 kts 308°
2026-04-27 20:20 24.43018 54.65523 72 ft 100 kts 309°
2026-04-27 20:20 24.43535 54.64805 71 ft 141 kts 311°
2026-04-27 20:21 24.44220 54.63885 244 ft 158 kts 307°
2026-04-27 20:21 24.44946 54.62868 464 ft 182 kts 307°
2026-04-27 20:21 24.45814 54.61651 464 ft 220 kts 307°
2026-04-27 20:21 24.46823 54.60215 461 ft 252 kts 307°
2026-04-27 20:22 24.47830 54.58780 564 ft 251 kts 307°
2026-04-27 20:22 24.48873 54.57295 1193 ft 249 kts 308°
2026-04-27 20:22 24.49974 54.55732 2033 ft 251 kts 309°
2026-04-27 20:22 24.51047 54.54213 2889 ft 252 kts 309°
2026-04-27 20:23 24.52128 54.52685 3698 ft 254 kts 309°
2026-04-27 20:23 24.53208 54.51161 4464 ft 258 kts 308°
2026-04-27 20:23 24.54317 54.49595 5242 ft 261 kts 308°
2026-04-27 20:23 24.55452 54.47987 6053 ft 264 kts 307°
2026-04-27 20:24 24.56579 54.46388 6813 ft 266 kts 307°
2026-04-27 20:24 24.57724 54.44765 7563 ft 270 kts 308°
2026-04-27 20:24 24.58882 54.43126 8310 ft 273 kts 307°
2026-04-27 20:24 24.60049 54.41469 9080 ft 276 kts 308°
2026-04-27 20:25 24.61009 54.40106 9710 ft 279 kts 308°
2026-04-27 20:25 24.62147 54.38500 10347 ft 283 kts 308°
2026-04-27 20:25 24.63395 54.36743 10756 ft 299 kts 307°
2026-04-27 20:25 24.64711 54.34887 11092 ft 316 kts 307°
2026-04-27 20:26 24.66091 54.32937 11412 ft 332 kts 307°
2026-04-27 20:26 24.67186 54.31384 11628 ft 345 kts 307°
2026-04-27 20:26 24.68694 54.29240 11892 ft 362 kts 307°
2026-04-27 20:26 24.70038 54.27336 12090 ft 376 kts 307°
2026-04-27 20:27 24.71664 54.25037 12389 ft 389 kts 307°
2026-04-27 20:27 24.73343 54.22667 12959 ft 395 kts 307°
2026-04-27 20:27 24.75038 54.20274 13600 ft 399 kts 307°
2026-04-27 20:27 24.76750 54.17849 14186 ft 402 kts 306°
2026-04-27 20:28 24.78448 54.15445 14821 ft 404 kts 306°
2026-04-27 20:28 24.80191 54.12981 15475 ft 407 kts 306°
2026-04-27 20:28 24.81934 54.10516 16110 ft 409 kts 306°
2026-04-27 20:28 24.83089 54.08881 16513 ft 410 kts 305°
2026-04-27 20:29 24.85247 54.05396 17317 ft 412 kts 300°
2026-04-27 20:29 24.86777 54.02716 17910 ft 414 kts 299°
2026-04-27 20:29 24.88277 54.00007 18442 ft 417 kts 298°
2026-04-27 20:29 24.89780 53.97260 18938 ft 419 kts 298°
2026-04-27 20:30 24.91288 53.94505 19436 ft 421 kts 298°
2026-04-27 20:30 24.92816 53.91734 19930 ft 424 kts 298°
2026-04-27 20:30 24.94386 53.88914 20411 ft 427 kts 298°
2026-04-27 20:30 24.95946 53.86121 20878 ft 429 kts 298°
2026-04-27 20:31 24.97520 53.83311 21336 ft 431 kts 298°
2026-04-27 20:31 24.99100 53.80493 21763 ft 434 kts 298°
2026-04-27 20:31 25.00707 53.77622 22189 ft 436 kts 298°
2026-04-27 20:31 25.02526 53.74919 22607 ft 443 kts 310°
2026-04-27 20:32 25.04726 53.72528 23005 ft 447 kts 312°
2026-04-27 20:32 25.06941 53.70156 23380 ft 449 kts 312°
2026-04-27 20:32 25.09194 53.67751 23677 ft 450 kts 312°
2026-04-27 20:32 25.11426 53.65376 23788 ft 450 kts 312°
2026-04-27 20:33 25.13731 53.62916 23804 ft 450 kts 312°
2026-04-27 20:33 25.15977 53.60515 23804 ft 449 kts 312°
2026-04-27 20:33 25.18217 53.58111 23801 ft 449 kts 312°
2026-04-27 20:33 25.20445 53.55712 23808 ft 450 kts 312°
2026-04-27 20:34 25.21970 53.54065 23805 ft 450 kts 312°
2026-04-27 20:34 25.24199 53.51657 23812 ft 449 kts 312°
2026-04-27 20:34 25.26390 53.49292 23808 ft 449 kts 312°
2026-04-27 20:34 25.28678 53.46825 23798 ft 449 kts 312°
2026-04-27 20:35 25.30903 53.44431 23808 ft 449 kts 312°
2026-04-27 20:35 25.33152 53.42009 23818 ft 449 kts 312°
2026-04-27 20:35 25.35388 53.39600 23817 ft 448 kts 312°
2026-04-27 20:35 25.37621 53.37191 23825 ft 448 kts 312°
2026-04-27 20:36 25.39851 53.34784 23816 ft 448 kts 312°
2026-04-27 20:36 25.42084 53.32374 23818 ft 448 kts 312°
2026-04-27 20:36 25.44313 53.29966 23821 ft 447 kts 311°
2026-04-27 20:36 25.46536 53.27556 23823 ft 446 kts 311°
2026-04-27 20:37 25.48494 53.24938 23827 ft 440 kts 300°
2026-04-27 20:37 25.49934 53.21970 23830 ft 436 kts 290°
2026-04-27 20:37 25.50824 53.18779 23831 ft 433 kts 281°
2026-04-27 20:37 25.51484 53.15533 23818 ft 433 kts 281°
2026-04-27 20:38 25.52148 53.12268 23827 ft 432 kts 281°
2026-04-27 20:38 25.52785 53.09147 23826 ft 432 kts 281°
2026-04-27 20:38 25.53146 53.07281 23838 ft 430 kts 279°
2026-04-27 20:38 25.53804 53.04371 23788 ft 432 kts 284°
2026-04-27 20:39 25.54582 53.01116 23783 ft 432 kts 282°
2026-04-27 20:39 25.55253 52.97880 23796 ft 431 kts 281°
2026-04-27 20:39 25.55865 52.94652 23807 ft 431 kts 280°
2026-04-27 20:39 25.56541 52.91454 23815 ft 432 kts 285°
2026-04-27 20:40 25.57764 52.88292 23816 ft 436 kts 295°
2026-04-27 20:40 25.59187 52.85326 23811 ft 436 kts 295°
2026-04-27 20:40 25.60636 52.82369 23820 ft 436 kts 295°
2026-04-27 20:40 25.62074 52.79460 23826 ft 435 kts 295°
2026-04-27 20:41 25.63549 52.76478 23818 ft 435 kts 295°
2026-04-27 20:41 25.64999 52.73531 23819 ft 435 kts 295°
2026-04-27 20:41 25.66441 52.70585 23819 ft 435 kts 295°
2026-04-27 20:41 25.67874 52.67638 23800 ft 435 kts 295°
2026-04-27 20:42 25.69306 52.64686 23807 ft 435 kts 295°
2026-04-27 20:42 25.70739 52.61734 23813 ft 434 kts 295°
2026-04-27 20:42 25.72179 52.58773 23801 ft 434 kts 295°
2026-04-27 20:42 25.73607 52.55829 23800 ft 434 kts 295°
2026-04-27 20:43 25.75034 52.52877 23804 ft 434 kts 295°
2026-04-27 20:43 25.76463 52.49916 23805 ft 434 kts 295°
2026-04-27 20:43 25.77861 52.46967 23805 ft 433 kts 295°
2026-04-27 20:43 25.79252 52.43980 23805 ft 433 kts 294°
2026-04-27 20:44 25.80623 52.41010 23805 ft 433 kts 294°
2026-04-27 20:44 25.81996 52.38023 23805 ft 433 kts 294°
2026-04-27 20:44 25.83363 52.35047 23806 ft 433 kts 294°
2026-04-27 20:44 25.84737 52.32066 23806 ft 433 kts 294°
2026-04-27 20:45 25.86116 52.29100 23802 ft 433 kts 296°
2026-04-27 20:45 25.87781 52.26292 23802 ft 437 kts 305°
2026-04-27 20:45 25.89811 52.23772 23803 ft 439 kts 309°
2026-04-27 20:45 25.91896 52.21285 23803 ft 439 kts 309°
2026-04-27 20:46 25.93969 52.18784 23803 ft 439 kts 309°
2026-04-27 20:46 25.96030 52.16286 23802 ft 439 kts 308°
2026-04-27 20:46 25.98099 52.13773 23806 ft 440 kts 308°
2026-04-27 20:46 26.00159 52.11270 23805 ft 440 kts 308°
2026-04-27 20:47 26.02222 52.08764 23805 ft 440 kts 308°
2026-04-27 20:47 26.04291 52.06252 23806 ft 440 kts 308°
2026-04-27 20:47 26.06359 52.03747 23804 ft 440 kts 308°
2026-04-27 20:47 26.08429 52.01239 23803 ft 440 kts 308°
2026-04-27 20:48 26.10495 51.98736 23800 ft 440 kts 308°
2026-04-27 20:48 26.11898 51.97036 23802 ft 440 kts 308°
2026-04-27 20:48 26.14640 51.93713 23803 ft 440 kts 308°
2026-04-27 20:48 26.16712 51.91202 23802 ft 439 kts 308°
2026-04-27 20:49 26.18784 51.88689 23802 ft 439 kts 308°
2026-04-27 20:49 26.20844 51.86190 23802 ft 439 kts 308°
2026-04-27 20:49 26.22920 51.83666 23801 ft 439 kts 308°
2026-04-27 20:49 26.24862 51.81067 23801 ft 435 kts 301°
2026-04-27 20:50 26.26396 51.78181 23802 ft 431 kts 293°
2026-04-27 20:50 26.27713 51.75193 23799 ft 431 kts 293°
2026-04-27 20:50 26.29020 51.72253 23801 ft 431 kts 294°
2026-04-27 20:50 26.30397 51.69170 23800 ft 431 kts 294°
2026-04-27 20:51 26.31738 51.66173 23800 ft 431 kts 294°
2026-04-27 20:51 26.33071 51.63187 23798 ft 431 kts 294°
2026-04-27 20:51 26.34408 51.60192 23800 ft 431 kts 293°
2026-04-27 20:51 26.35744 51.57197 23800 ft 431 kts 293°
2026-04-27 20:52 26.37073 51.54211 23803 ft 431 kts 293°
2026-04-27 20:52 26.38263 51.51157 23802 ft 428 kts 287°
2026-04-27 20:52 26.39260 51.48018 23800 ft 428 kts 287°
2026-04-27 20:52 26.40254 51.44892 23798 ft 428 kts 287°
2026-04-27 20:53 26.41251 51.41768 23803 ft 428 kts 287°
2026-04-27 20:53 26.42253 51.38633 23798 ft 428 kts 287°
2026-04-27 20:53 26.43253 51.35505 23797 ft 428 kts 287°
2026-04-27 20:53 26.44224 51.32369 23793 ft 427 kts 283°
2026-04-27 20:54 26.44829 51.25802 23796 ft 424 kts 265°
2026-04-27 20:54 26.44353 51.22575 23519 ft 418 kts 256°
2026-04-27 20:54 26.43388 51.19581 23392 ft 400 kts 249°
2026-04-27 20:55 26.42325 51.16774 23305 ft 383 kts 249°
2026-04-27 20:55 26.41325 51.14085 23209 ft 368 kts 250°
2026-04-27 20:55 26.40364 51.11473 22854 ft 362 kts 250°
2026-04-27 20:55 26.39411 51.08875 22336 ft 361 kts 249°
2026-04-27 20:56 26.38459 51.06292 21848 ft 360 kts 249°
2026-04-27 20:56 26.37507 51.03721 21379 ft 359 kts 249°
2026-04-27 20:56 26.36549 51.01154 20905 ft 357 kts 249°
2026-04-27 20:56 26.35598 50.98605 20441 ft 356 kts 249°
2026-04-27 20:57 26.34649 50.96062 19968 ft 354 kts 249°
2026-04-27 20:57 26.33704 50.93516 19487 ft 353 kts 250°
2026-04-27 20:57 26.33159 50.90873 19035 ft 350 kts 268°
2026-04-27 20:57 26.33490 50.88208 18580 ft 349 kts 288°
2026-04-27 20:58 26.34657 50.85843 18144 ft 352 kts 307°
2026-04-27 20:58 26.36534 50.84082 17613 ft 357 kts 327°
2026-04-27 20:58 26.38025 50.83199 17286 ft 356 kts 327°
2026-04-27 20:58 26.40011 50.81670 16927 ft 346 kts 315°
2026-04-27 20:59 26.41597 50.79696 16849 ft 328 kts 302°
2026-04-27 20:59 26.42845 50.77624 16617 ft 320 kts 301°
2026-04-27 20:59 26.44056 50.75576 16439 ft 311 kts 303°
2026-04-27 20:59 26.45560 50.73855 15995 ft 317 kts 322°
2026-04-27 21:00 26.47641 50.72881 15230 ft 337 kts 347°
2026-04-27 21:00 26.50030 50.72962 14494 ft 355 kts 11°
2026-04-27 21:00 26.52272 50.74211 13764 ft 371 kts 37°
2026-04-27 21:00 26.53884 50.76499 12990 ft 383 kts 63°
2026-04-27 21:01 26.54510 50.79400 12208 ft 391 kts 89°
2026-04-27 21:01 26.54013 50.82370 11448 ft 393 kts 113°
2026-04-27 21:01 26.52773 50.85090 10703 ft 394 kts 123°
2026-04-27 21:01 26.51225 50.87613 9977 ft 395 kts 128°
2026-04-27 21:02 26.49551 50.90050 9219 ft 395 kts 129°
2026-04-27 21:02 26.47748 50.92169 8701 ft 385 kts 147°
2026-04-27 21:02 26.45352 50.93400 8211 ft 370 kts 170°
2026-04-27 21:02 26.42838 50.93492 7732 ft 357 kts 192°
2026-04-27 21:03 26.40410 50.93019 7264 ft 352 kts 187°
2026-04-27 21:03 26.37972 50.92926 6790 ft 348 kts 183°
2026-04-27 21:03 26.35606 50.92595 6334 ft 340 kts 200°
2026-04-27 21:03 26.33571 50.91358 5897 ft 330 kts 223°
2026-04-27 21:04 26.32177 50.89392 5487 ft 321 kts 244°
2026-04-27 21:04 26.31531 50.87043 5089 ft 316 kts 264°
2026-04-27 21:04 26.31606 50.84584 4676 ft 312 kts 276°
2026-04-27 21:04 26.31838 50.82190 4273 ft 308 kts 275°
2026-04-27 21:05 26.32062 50.79822 3867 ft 305 kts 275°
2026-04-27 21:05 26.32436 50.77502 3461 ft 304 kts 288°
2026-04-27 21:05 26.33251 50.75336 3092 ft 302 kts 292°
2026-04-27 21:05 26.34114 50.73222 2990 ft 289 kts 293°
2026-04-27 21:06 26.34931 50.71243 3000 ft 273 kts 293°
2026-04-27 21:06 26.35696 50.69397 3006 ft 258 kts 293°
2026-04-27 21:06 26.36446 50.67601 3005 ft 243 kts 293°
2026-04-27 21:06 26.37139 50.65946 3003 ft 228 kts 293°
2026-04-27 21:07 26.37743 50.64369 3007 ft 220 kts 286°
2026-04-27 21:07 26.38177 50.62761 3007 ft 219 kts 283°
2026-04-27 21:07 26.38585 50.61098 3004 ft 219 kts 283°
2026-04-27 21:07 26.38985 50.59458 3005 ft 219 kts 283°
2026-04-27 21:08 26.39386 50.57818 3007 ft 219 kts 283°
2026-04-27 21:08 26.39789 50.56180 3005 ft 219 kts 283°
2026-04-27 21:08 26.40195 50.54540 2999 ft 219 kts 283°
2026-04-27 21:08 26.40315 50.52875 3002 ft 215 kts 254°
2026-04-27 21:09 26.39607 50.51439 2960 ft 215 kts 225°
2026-04-27 21:09 26.38396 50.50455 2598 ft 215 kts 202°
2026-04-27 21:09 26.36977 50.50087 2477 ft 211 kts 181°
2026-04-27 21:09 26.35537 50.50326 2357 ft 211 kts 160°
2026-04-27 21:10 26.34294 50.51136 2165 ft 201 kts 139°
2026-04-27 21:10 26.33450 50.52314 1941 ft 189 kts 124°
2026-04-27 21:10 26.32763 50.53514 1706 ft 178 kts 125°
2026-04-27 21:10 26.32108 50.54648 1479 ft 169 kts 125°
2026-04-27 21:11 26.31512 50.55683 1279 ft 152 kts 126°
2026-04-27 21:11 26.30955 50.56649 1096 ft 142 kts 125°
2026-04-27 21:11 26.30434 50.57551 927 ft 140 kts 125°
2026-04-27 21:11 26.29899 50.58478 752 ft 139 kts 123°
2026-04-27 21:12 26.29385 50.59370 598 ft 139 kts 122°
2026-04-27 21:12 26.28866 50.60282 420 ft 139 kts 123°
2026-04-27 21:12 26.28342 50.61190 226 ft 137 kts 122°
2026-04-27 21:12 26.27821 50.62085 48 ft 136 kts 122°
2026-04-27 21:13 26.27354 50.62897 22 ft 114 kts 122°
2026-04-27 21:13 26.27061 50.63409 14 ft 47 kts 120°
2026-04-27 21:13 26.26970 50.63559 15 ft 7 kts 125°
2026-04-27 21:13 26.26920 50.63639 15 ft 15 kts 123°
2026-04-27 21:14 26.26846 50.63729 16 ft 16 kts 161°
2026-04-27 21:14 26.26734 50.63759 19 ft 16 kts 168°
2026-04-27 21:14 26.26664 50.63739 21 ft 8 kts 172°
2026-04-27 21:14 26.26607 50.63758 21 ft 10 kts 161°
2026-04-27 21:15 26.26557 50.63724 21 ft 10 kts 265°
2026-04-27 21:15 26.26569 50.63665 21 ft 6 kts 239°
2026-04-27 21:15 26.26527 50.63632 22 ft 9 kts 212°
2026-04-27 21:15 26.26507 50.63618 21 ft 1 kts 212°
2026-04-27 21:16 26.26494 50.63609 21 ft 1 kts 212°
2026-04-27 21:16 26.26492 50.63607 21 ft 0 kts 212°